Location: Cactus School
(34.5700°N, 118.0931°W)
Time: 08:07:09
(UTC-07:00)

S-56A Canister/Altair - Pass Details

Date: 15 April 2024
Orbit: 638 x 2488 km, 38.9° (Epoch: 29 May)

Event Time Altitude Azimuth Distance (km) Brightness Sun altitude
Rises 16:23:09 0° 192° (SSW) 3,034 10.9 36.3°
Reaches altitude 10° 16:26:11 10° 170° (S) 2,271 10.1 35.6°
Maximum altitude 16:29:20 16° 132° (SE) 2,082 9.6 35.0°
Drops below altitude 10° 16:33:02 10° 96° (E) 2,762 10.0 34.3°
Sets 16:37:19 0° 77° (ENE) 4,088 10.7 33.4°
